This is the latest recevied weather packets stored in our database for station/object XW7RMR. If no packets are shown the sender has not sent any weather packets the latest 10 day(s).
| Time | Temp. | Humidity | Pressure | Rain* | Wind** | Luminosity | Snow |
|---|---|---|---|---|---|---|---|
| 1777617179 | 17.22° C | 59% | 1013.7 hPa | 0 mm | - | 0 W/m² | - |
| 1777616875 | 17.22° C | 60% | 1013.6 hPa | 0 mm | - | 0 W/m² | - |
| 1777616571 | 17.22° C | 59% | 1013.6 hPa | 0 mm | - | 0 W/m² | - |
| 1777616266 | 17.78° C | 59% | 1013.7 hPa | 0 mm | - | 0 W/m² | - |
| 1777615964 | 18.33° C | 57% | 1013.6 hPa | 0 mm | - | 0 W/m² | - |
| 1777615660 | 18.33° C | 54% | 1013.6 hPa | 0 mm | - | 0 W/m² | - |
| 1777615357 | 18.89° C | 52% | 1013.5 hPa | 0 mm | - | 0 W/m² | - |
| 1777615056 | 19.44° C | 50% | 1013.6 hPa | 0 mm | - | 0 W/m² | - |
| 1777614753 | 19.44° C | 49% | 1013.7 hPa | 0 mm | - | 0 W/m² | - |
| 1777614453 | 19.44° C | 51% | 1013.5 hPa | 0 mm | - | 0 W/m² | - |
| 1777614149 | 19.44° C | 51% | 1013.6 hPa | 0 mm | - | 0 W/m² | - |
| 1777613844 | 19.44° C | 52% | 1013.6 hPa | 0 mm | - | 0 W/m² | - |
| 1777613542 | 19.44° C | 52% | 1013.6 hPa | 0 mm | - | 0 W/m² | - |
| 1777613238 | 19.44° C | 52% | 1013.5 hPa | 0 mm | - | 0 W/m² | - |
| 1777612935 | 19.44° C | 54% | 1013.6 hPa | 0 mm | - | 0 W/m² | - |
| 1777612630 | 18.89° C | 54% | 1013.4 hPa | 0 mm | - | 0 W/m² | - |
| 1777612327 | 18.89° C | 55% | 1013.5 hPa | 0 mm | - | 0 W/m² | - |
| 1777612022 | 19.44° C | 54% | 1013.3 hPa | 0 mm | - | 0 W/m² | - |
| 1777611717 | 18.33° C | 58% | 1013.3 hPa | 0 mm | - | 0 W/m² | - |
| 1777611414 | 18.33° C | 62% | 1013.6 hPa | 0 mm | - | 0 W/m² | - |
| 1777611112 | 18.89° C | 62% | 1013.5 hPa | 0 mm | - | 0 W/m² | - |
| 1777610812 | 18.33° C | 57% | 1013.3 hPa | 0 mm | - | 0 W/m² | - |
| 1777610512 | 18.33° C | 62% | 1013.3 hPa | 0 mm | - | 0 W/m² | - |
| 1777610207 | 18.89° C | 63% | 1013.3 hPa | 0 mm | - | 0 W/m² | - |
| 1777609904 | 18.89° C | 64% | 1013.2 hPa | 0 mm | - | 0 W/m² | - |
* Rain latest hour (hover to see other rain measurements)
** Current wind speed in m/s (hover to see current wind gust speed)